Location: Houston
(29.7630°N, 95.3630°W)
Time: 19:12:12
(UTC-06:00)

Daily predictions for brighter satellites

Satellite Brightness Start Highest point End
(mag) Time Altitude Azimuth Time Altitude Azimuth Time Altitude Azimuth
Haruka 3.1 18:01:17 10° W 18:04:44 83° N 18:13:18 10° E
Cosmos 304 Rocket 3.9 18:08:18 10° SSW 18:13:06 82° WNW 18:17:56 10° NNE
Cosmos 2297 4.2 18:15:16 10° N 18:20:33 38° ENE 18:25:50 10° SE
Meteor 1-28 Rocket 3.3 18:19:50 10° NNE 18:23:29 53° E 18:27:07 10° S
Tiangong 1 0.9 18:22:55 10° SW 18:25:53 76° SE 18:28:39 11° ENE
Cosmos 1151 Rocket 3.8 18:22:29 10° NNW 18:26:42 57° W 18:30:55 10° S
Intelsat 5-1 Rocket 2.9 18:27:15 10° WSW 18:29:18 24° S 18:32:15 10° ESE
IDEFIX/ARIANE 42P 4.1 18:24:54 10° SSW 18:29:46 41° W 18:34:41 10° NNW
Cosmos 2279 Rocket 4.0 18:25:42 10° N 18:31:56 80° E 18:38:10 10° S
Milstar 3 3.4 18:27:11 10° W 18:33:58 55° SSW 18:40:51 10° ESE
Cosmos 372 Rocket 4.2 18:29:37 10° NNW 18:34:43 77° WSW 18:39:48 10° S
Cosmos 2058 4.3 18:30:54 10° SSW 18:34:46 40° W 18:38:39 10° N
OAO 1 Rocket 4.5 18:31:16 10° WNW 18:36:33 70° NNE 18:41:35 11° E
Cosmos 773 Rocket 4.0 18:31:59 10° S 18:37:05 66° ESE 18:42:14 10° NNE
Cosmos 1805 Rocket 3.9 18:34:48 10° SSW 18:39:14 73° W 18:43:41 10° N
USA 215 4.5 18:40:52 13° ENE 18:44:31 21° NNE 18:49:11 10° NNW
Nadezhda 4 Rocket 4.0 18:38:21 10° S 18:44:32 71° E 18:50:49 10° N
Cosmos 1626 2.4 18:42:16 10° S 18:45:59 73° W 18:49:43 10° N
Cosmos 2242 Rocket 4.3 18:44:20 10° NNE 18:48:15 30° E 18:52:09 10° SE
ATLAS 2A CENTAUR R/B 3.2 18:48:41 10° SSE 18:50:04 13° SE 18:51:15 12° ESE
Cosmos 1900 4.4 18:45:50 10° NNW 18:50:45 58° ENE 18:55:42 10° SE
Sich 1 3.1 18:47:41 10° S 18:52:07 83° W 18:56:34 10° N
Cosmos 1356 Rocket 4.0 18:50:53 10° SSW 18:54:47 55° W 18:58:42 10° N
Aureole 1 Rocket 3.7 18:51:19 10° SSW 18:56:13 87° WNW 19:02:52 10° NNE
ALOS 3.1 18:55:38 10° SE 18:59:34 28° ENE 19:03:30 10° NNE
Lacrosse 5 rocket 1.9 18:55:56 10° NW 18:59:45 57° SW 19:03:48 10° SSE
Coronas F rocket 1.6 18:59:41 10° SSW 19:02:00 54° W 19:03:52 14° N
Cosmos 1633 Rocket 3.3 18:58:11 10° SSW 19:02:34 71° W 19:06:58 10° N
Cosmos 1603 3.6 19:00:32 10° SSW 19:06:08 85° ESE 19:11:45 10° NNE
Cosmos 1092 Rocket 3.9 19:00:39 10° S 19:06:57 77° E 19:13:18 10° N
Delta 2 Rocket 2.7 19:05:37 10° WSW 19:08:56 70° SSE 19:09:44 47° E
Cosmos 292 Rocket 3.6 19:05:00 10° SSW 19:09:44 83° ESE 19:14:08 12° NNE
Cosmos 1455 2.3 19:10:35 10° N 19:14:23 73° W 19:18:12 10° S
SJ-6B 2.9 19:17:12 10° S 19:21:15 84° W 19:25:23 10° NNW
Spot 2 Rocket 3.6 19:21:22 10° SSE 19:26:13 49° ENE 19:31:04 10° N
Iridium 4 Rocket 3.5 19:25:26 10° S 19:30:00 65° W 19:34:17 10° N
Cosmos 2195 Rocket 4.3 19:24:05 10° S 19:30:09 77° E 19:36:17 10° N
OTV 4 3.6 19:30:09 10° WSW 19:31:11 11° SW 19:32:13 10° SSW
FREGAT/IRIS 4.2 19:34:06 10° SSW 19:36:57 36° W 19:39:48 10° NNW
SL-19 R/B 4.2 19:33:20 10° SSE 19:39:20 84° ENE 19:45:00 10° NNW
NOSS 3-1 (A) 3.2 19:35:52 10° SSW 19:41:24 63° ESE 19:42:21 55° ENE
ISS -0.5 19:38:39 10° S 19:38:53 11° S 19:38:53 11° S
Meteor 2-20 Rocket 4.3 19:39:16 10° S 19:45:14 61° E 19:46:24 52° NE
Cosmos 2369 Rocket 4.3 19:42:28 10° N 19:42:51 12° N 19:42:51 12° N
Resurs 01 Rocket 2.4 19:43:49 10° SSE 19:49:47 41° NNW 19:52:43 10° NNW
Lacrosse 4 Rocket 3.3 20:00:06 10° NNW 20:01:45 23° NW 20:01:45 23° NW
Cosmos 1655 Rocket 4.1 19:57:50 10° S 20:04:12 75° W 20:09:16 17° N
Helios 1B rocket 4.1 20:07:51 29° SW 20:07:51 29° SW 20:10:02 10° SSW
FENGYUN 3A 4.2 20:03:11 10° S 20:08:25 54° W 20:13:40 10° NNW
NOSS 3-1 (C) 4.2 20:13:52 10° SW 20:19:15 44° NW 20:20:20 40° NNW
Cosmos 1943 4.1 20:17:45 10° SW 20:23:07 44° WNW 20:23:49 42° NW
USA 215 3.5 20:28:15 58° NNW 20:28:15 58° NNW 20:33:23 10° NW
